Iridium Next SV170

operational
NORAD ID: 43930 Int'l Des: 2019-002 Owner: IRIDS Country: US Constellation: Iridium NEXT
LEOCIRCULARPOLAR

关于 Iridium Next SV170

正在加载描述...

实时位置

正在加载3D地球...

即将过境

高度历史

Altitude vs Time

uPlot chart will show altitude changes over time

两行轨道根数

1 43930U 19002J 25305.47335119 .00001526 00000-0 23808-3 0 9997
2 43930 86.6055 88.7752 0002302 89.8887 270.2594 14.72251790365756
Epoch: Nov 1, 2025 • Age: 29 hours

当前状态

高度 674.1 km
速度 7.52 km/s
星下点 -48.89°S, 154.68°E
发射日期 Jan 11, 2019
运行时间 6.8 years
类型 communications

技术详情

分类 Payload
质量 860.00 kg
干质量 700.00 kg
总质量 860.00 kg
长度 3.10 m
直径 1.50 m
跨度 9.40 m
形状 Half Hex Prism+2 pan
制造商 NGISGA
平台类型 EliteBus
阶段状态 In Orbit
所有者/国家 IRIDS/US

大型星座

Loading constellations...